979  
FPUS82 KCHS 240112  
OPUCHS  
 
TEST   
..KCHS/KSAV GATEWAY OBSERVATIONS
 
TEST  
NATIONAL WEATHER SERVICE CHARLESTON SC  
800 PM EST SAT FEB 23 2019  
 
NOTE: "FAIR" INDICATES FEW OR NO CLOUDS BELOW 12,000 FEET WITH NO  
SIGNIFICANT WEATHER AND/OR OBSTRUCTIONS TO VISIBILITY.  
 
SCZ050-WAZ558-NCZ071-TXZ119-213-PAZ071-DCZ001-FLZ074-172-MI076-  
NYZ176-178-MAZ016-IL014-TNZ027-NJZ106-GAZ044-MD014-240200-  
   
..GATEWAY OBSERVATIONS FOR CHARLESTON INTERNATIONAL
 
 
 
CITY SKY/WX TMP DP RH WIND PRES REMARKS  
CHAS AIRPORT CLOUDY 54 50 86 N6 30.12S  
SEATTLE MOCLDY 44 34 67 S3 30.06F  
CHARLOTTE CLOUDY 43 39 86 E3 30.14F  
DALLAS DFW PTCLDY 60 33 36 NW29G37 29.93R  
DALLAS LOVE PTCLDY 62 34 35 NW23G37 29.92R  
PHILLADELPHIA CLOUDY 38 32 79 E7 30.29S WCI 33  
WASH NATIONAL DRIZZLE 40 37 89 NE10 30.22F FOG WCI 33  
BALTIMORE LGT RAIN 38 37 97 E10 30.22F FOG WCI 31  
MIAMI FAIR 78 72 81 SE8 30.11R  
DETROIT DRZL/FOG 36 33 89 E8 29.82F VSB 1 WCI 30  
NEWARK LGT RAIN 39 33 79 E7 30.30F WCI 34  
LAGUARDIA CLOUDY 37 29 72 NE8 30.31F WCI 31  
J F K CLOUDY 38 33 82 E9 30.32F WCI 31  
BOSTON LOGAN CLOUDY 35 29 78 SE6 30.35F WCI 30  
FT. LAUDERDALE FAIR 78 75 90 SE7 30.10R  
CHICAGO O'HARE LGT RAIN 41 37 86 E8 29.55F FOG  
CHICAGO MIDWAY LGT RAIN 39 39 100 E8 29.56F FOG WCI 33  
HOUSTON BUSH CLOUDY 66 44 45 W5 29.95R  
HOUSTON HOBBY FAIR 68 41 37 W5 29.95R  
NASHVILLE LGT RAIN 61 59 93 SE15G21 29.72F  
ATLANTA DRZL/FOG 48 46 93 E12 30.05R VSB 1/2  
 

 
 
GAZ044-118-TXZ119-213-NCZ071-DCZ001-MDZ014-506-PAZ021-071-NJZ106-  
NYZ176-178-MAZ106-OHZ011-021-055-MIZ076-KYZ091-ILZ014-INZ047-  
MNZ060-ONZ431-240200-  
   
..GATEWAY OBSERVATIONS FOR SAVANNAH INTERNATIONAL
 
 
 
CITY SKY/WX TMP DP RH WIND PRES REMARKS  
SAVANNAH ARPT CLOUDY 61 60 97 E5 30.10S FOG  
ATLANTA DRZL/FOG 48 46 93 E12 30.05R VSB 1/2  
CHARLOTTE CLOUDY 43 39 86 E3 30.14F  
DALLAS DFW PTCLDY 60 33 36 NW29G37 29.93R  
HOUSTON BUSH CLOUDY 66 44 45 W5 29.95R  
WASH NATIONAL DRIZZLE 40 37 89 NE10 30.22F FOG WCI 33  
WASH DULLES DRIZZLE 36 35 96 NE5 30.20F FOG WCI 32  
BALTIMORE LGT RAIN 38 37 97 E10 30.22F FOG WCI 31  
PHILADELPHIA CLOUDY 38 32 79 E7 30.29S WCI 33  
NEWARK LGT RAIN 39 33 79 E7 30.30F WCI 34  
LAGUARDIA CLOUDY 37 29 72 NE8 30.31F WCI 31  
J F K CLOUDY 38 33 82 E9 30.32F WCI 31  
BOSTON CLOUDY 35 29 78 SE6 30.35F WCI 30  
PITTSBURG CLOUDY 40 39 97 SE8 29.96F WCI 34  
AKRON CLOUDY 43 39 86 SE10 29.89F FOG  
CLEVELAND LGT RAIN 44 41 89 SE14 29.89F FOG  
CINCINNATI CLOUDY 55 52 89 SE21G32 29.71F  
COLUMBUS LGT RAIN 48 46 93 SE7 29.84F  
DETROIT DRZL/FOG 36 33 89 E8 29.82F VSB 1 WCI 30  
CHICAGO O'HARE LGT RAIN 41 37 86 E8 29.55F FOG  
MINNEAPOLIS CLOUDY 31 26 82 N13 29.68F WCI 21  
INDIANAPOLIS CLOUDY 52 51 97 SE17 29.60F  
TORONTO CANADA CLOUDY 34 27 75 E10G22 30.02F WCI 26  
 

 
 
 
CLICK HERE TO GO TO PREVIOUS BULLETINS.

The Nexlab SC Page
The Nexlab GA Page Main Text Page